DK4ARL Weather Reports


time (UTC)temp
F
wind
direction
speed
knots
gust
knots
rain 1hr
in
rain 24hr
in
rain mn
in
humidity
%
barometer
mb
20260504201825 63 0.0 0.0 0.00 0.00 0.00 975.9
20260504200335 64 0.0 0.0 0.00 0.00 0.00 975.8
20260504194844 64 0.0 0.0 0.00 0.00 0.00 975.7
20260504193352 64 0.0 0.0 0.00 0.00 0.00 975.7
20260504191911 64 0.0 0.0 0.00 0.00 0.00 975.6
20260504184924 65 0.0 0.0 0.00 0.00 0.00 975.5
20260504183429 65 0.0 0.0 0.00 0.00 0.00 975.4
20260504181934 66 0.0 0.0 0.00 0.00 0.00 975.3
20260504180438 67 0.0 0.0 0.00 0.00 0.00 975.3
20260504174941 68 0.0 0.0 0.00 0.00 0.00 975.2
20260504173443 69 0.0 0.0 0.00 0.00 0.00 975.1
20260504171945 69 0.0 0.0 0.00 0.00 0.00 975.2
20260504170445 70 0.0 0.0 0.00 0.00 0.00 975.2
20260504160435 72 0.0 0.0 0.00 0.00 0.00 975.3
20260504140315 74 0.0 0.0 0.00 0.00 0.00 976.1
20260504130233 72 0.0 0.0 0.00 0.00 0.00 976.5
20260504120143 77 0.0 0.0 0.00 0.00 0.00 976.9
20260504081419 70 0.0 0.0 0.00 0.00 0.00 978.2
20260504050228 51 0.0 0.0 0.00 0.00 0.00 978.2
20260504044751 52 0.0 0.0 0.00 0.00 0.00 978.1
20260504043315 52 0.0 0.0 0.00 0.00 0.00 978.1
20260504041839 51 0.0 0.0 0.00 0.00 0.00 978.1
20260504040403 51 0.0 0.0 0.00 0.00 0.00 978.1
20260504034926 50 0.0 0.0 0.00 0.00 0.00 978.1
20260504030536 50 0.0 0.0 0.00 0.00 0.00 978.1
20260504025108 51 0.0 0.0 0.00 0.00 0.00 978.1
20260504023629 52 0.0 0.0 0.00 0.00 0.00 978.1
20260504022151 52 0.0 0.0 0.00 0.00 0.00 978.0
20260504015231 54 0.0 0.0 0.00 0.00 0.00 978.0
20260504013750 54 0.0 0.0 0.00 0.00 0.00 978.0
20260504012308 55 0.0 0.0 0.00 0.00 0.00 978.0
20260504010826 55 0.0 0.0 0.00 0.00 0.00 978.0
20260504005344 56 0.0 0.0 0.00 0.00 0.00 978.1
20260504003901 56 0.0 0.0 0.00 0.00 0.00 978.1
20260504002418 57 0.0 0.0 0.00 0.00 0.00 978.2
20260504000935 56 0.0 0.0 0.00 0.00 0.00 978.2
20260503231038 58 0.0 0.0 0.00 0.00 0.00 978.3
20260503225553 58 0.0 0.0 0.00 0.00 0.00 978.3
20260503224108 59 0.0 0.0 0.00 0.00 0.00 978.3
20260503222622 59 0.0 0.0 0.00 0.00 0.00 978.2
20260503221135 60 0.0 0.0 0.00 0.00 0.00 978.1
20260503215649 60 0.0 0.0 0.00 0.00 0.00 978.0
20260503214214 61 0.0 0.0 0.00 0.00 0.00 977.9
20260503212728 61 0.0 0.0 0.00 0.00 0.00 977.9
20260503211242 62 0.0 0.0 0.00 0.00 0.00 977.8
20260503205755 62 0.0 0.0 0.00 0.00 0.00 977.8
20260503202821 62 0.0 0.0 0.00 0.00 0.00 977.6